TAP39K LPPT-LICJ

Flight info

Callsign TAP39K
Flight time 2h 30m
Altitude 36000
Route ORVED DCT UREDI DCT PONEN/N0447F380 DCT SEROX DCT VILAR DCT KARES DCT BISES DCT BCN/N0449F370 DCT DIPES/N0450F380 N725 OSPOK/N0447F370 DCT NOLVI DCT ORKUM/N0446F380 DCT ELSAG DCT ALG/N0448F370 DCT GIANO
Aircraft A320/M-SDE3FGHIRWY/LB1

Departure

Time 2026-05-07 20:58
Airport Lisbon Humberto Delgado Airport (LPPT)

Arrival

Time 2026-05-07 23:29
Airport Falcone–Borsellino Airport (LICJ)
Time Latitude Longitude Altitude Speed Heading
2026-05-07 20:26 38.76841 -9.13717 350 ft 0 kts 78°
2026-05-07 20:49 38.76842 -9.13720 346 ft 4 kts 64°
2026-05-07 20:49 38.76843 -9.13728 347 ft 4 kts 105°
2026-05-07 20:49 38.76849 -9.13762 357 ft 4 kts 98°
2026-05-07 20:50 38.76853 -9.13796 355 ft 4 kts 97°
2026-05-07 20:50 38.76859 -9.13828 354 ft 4 kts 128°
2026-05-07 20:50 38.76867 -9.13837 357 ft 0 kts 168°
2026-05-07 20:51 38.76866 -9.13837 357 ft 0 kts 168°
2026-05-07 20:53 38.76858 -9.13835 354 ft 4 kts 168°
2026-05-07 20:54 38.76829 -9.13827 348 ft 5 kts 168°
2026-05-07 20:54 38.76797 -9.13818 350 ft 5 kts 168°
2026-05-07 20:54 38.76764 -9.13809 345 ft 6 kts 168°
2026-05-07 20:54 38.76676 -9.13786 344 ft 14 kts 168°
2026-05-07 20:55 38.76602 -9.13818 349 ft 12 kts 250°
2026-05-07 20:55 38.76583 -9.13927 352 ft 13 kts 258°
2026-05-07 20:55 38.76546 -9.14038 351 ft 14 kts 237°
2026-05-07 20:55 38.76496 -9.14147 353 ft 16 kts 265°
2026-05-07 20:56 38.76532 -9.14288 335 ft 15 kts 294°
2026-05-07 20:56 38.76537 -9.14303 336 ft 0 kts 294°
2026-05-07 20:57 38.76545 -9.14324 333 ft 11 kts 294°
2026-05-07 20:57 38.76622 -9.14398 336 ft 16 kts 16°
2026-05-07 20:57 38.76758 -9.14327 336 ft 41 kts 22°
2026-05-07 20:57 38.77247 -9.14070 360 ft 108 kts 23°
2026-05-07 20:58 38.78115 -9.13613 373 ft 160 kts 21°
2026-05-07 20:58 38.79149 -9.12996 823 ft 165 kts 23°
2026-05-07 20:58 38.80182 -9.12290 1383 ft 171 kts 24°
2026-05-07 20:58 38.81298 -9.11672 1896 ft 183 kts 21°
2026-05-07 20:59 38.82504 -9.10866 2194 ft 208 kts 27°
2026-05-07 20:59 38.83841 -9.09897 2581 ft 233 kts 27°
2026-05-07 20:59 38.85313 -9.08798 3052 ft 254 kts 28°
2026-05-07 20:59 38.86849 -9.07628 3863 ft 261 kts 29°
2026-05-07 21:00 38.88429 -9.06402 4663 ft 269 kts 32°
2026-05-07 21:00 38.89806 -9.04731 5401 ft 279 kts 56°
2026-05-07 21:00 38.90722 -9.02516 6190 ft 284 kts 67°
2026-05-07 21:00 38.91563 -9.00193 6974 ft 290 kts 68°
2026-05-07 21:01 38.92405 -8.97813 7792 ft 293 kts 69°
2026-05-07 21:01 38.93249 -8.95414 8639 ft 296 kts 69°
2026-05-07 21:01 38.94098 -8.92995 9487 ft 299 kts 69°
2026-05-07 21:01 38.94961 -8.90543 10241 ft 305 kts 70°
2026-05-07 21:02 38.95865 -8.87964 10493 ft 328 kts 70°
2026-05-07 21:02 38.96836 -8.85189 10691 ft 352 kts 69°
2026-05-07 21:02 38.97861 -8.82274 11172 ft 363 kts 69°
2026-05-07 21:02 38.98912 -8.79299 11848 ft 367 kts 69°
2026-05-07 21:03 38.99961 -8.76333 12549 ft 371 kts 69°
2026-05-07 21:03 39.01033 -8.73298 13266 ft 375 kts 69°
2026-05-07 21:03 39.02130 -8.70191 13931 ft 379 kts 69°
2026-05-07 21:03 39.03209 -8.67125 14485 ft 384 kts 69°
2026-05-07 21:04 39.04314 -8.63971 15025 ft 390 kts 69°
2026-05-07 21:04 39.05434 -8.60770 15608 ft 394 kts 69°
2026-05-07 21:04 39.06563 -8.57548 16195 ft 398 kts 69°
2026-05-07 21:04 39.07707 -8.54280 16787 ft 402 kts 69°
2026-05-07 21:05 39.08858 -8.50989 17373 ft 406 kts 69°
2026-05-07 21:05 39.10021 -8.47651 17957 ft 410 kts 69°
2026-05-07 21:05 39.11193 -8.44277 18487 ft 414 kts 69°
2026-05-07 21:05 39.12367 -8.40886 18984 ft 418 kts 69°
2026-05-07 21:06 39.13558 -8.37448 19484 ft 421 kts 69°
2026-05-07 21:06 39.14759 -8.33987 19970 ft 425 kts 69°
2026-05-07 21:06 39.15966 -8.30507 20539 ft 426 kts 69°
2026-05-07 21:06 39.17179 -8.27006 21046 ft 430 kts 69°
2026-05-07 21:07 39.18399 -8.23473 21496 ft 434 kts 69°
2026-05-07 21:07 39.19615 -8.19947 21934 ft 438 kts 69°
2026-05-07 21:07 39.20855 -8.16348 22369 ft 442 kts 69°
2026-05-07 21:07 39.22107 -8.12723 22793 ft 446 kts 68°
2026-05-07 21:08 39.23375 -8.09042 23221 ft 449 kts 68°
2026-05-07 21:08 39.24643 -8.05347 23608 ft 453 kts 68°
2026-05-07 21:08 39.25922 -8.01616 23945 ft 456 kts 68°
2026-05-07 21:08 39.27209 -7.97860 24290 ft 459 kts 68°
2026-05-07 21:09 39.28507 -7.94075 24634 ft 462 kts 68°
2026-05-07 21:09 39.29809 -7.90278 24967 ft 464 kts 68°
2026-05-07 21:09 39.31118 -7.86459 25290 ft 467 kts 68°
2026-05-07 21:09 39.32433 -7.82615 25638 ft 469 kts 68°
2026-05-07 21:10 39.33749 -7.78752 25974 ft 471 kts 68°
2026-05-07 21:10 39.35068 -7.74869 26295 ft 473 kts 68°
2026-05-07 21:10 39.36393 -7.70959 26610 ft 476 kts 68°
2026-05-07 21:10 39.37718 -7.67036 26927 ft 478 kts 68°
2026-05-07 21:11 39.39068 -7.63094 27223 ft 480 kts 67°
2026-05-07 21:11 39.40503 -7.59184 27487 ft 483 kts 65°
2026-05-07 21:11 39.43565 -7.51405 28056 ft 488 kts 64°
2026-05-07 21:12 39.45126 -7.47505 28329 ft 490 kts 64°
2026-05-07 21:12 39.46680 -7.43571 28580 ft 492 kts 64°
2026-05-07 21:12 39.48220 -7.39608 28843 ft 493 kts 65°
2026-05-07 21:12 39.49747 -7.35620 29098 ft 495 kts 65°
2026-05-07 21:13 39.51254 -7.31653 29322 ft 497 kts 65°
2026-05-07 21:13 39.52776 -7.27631 29580 ft 498 kts 65°
2026-05-07 21:13 39.54298 -7.23605 29911 ft 498 kts 65°
2026-05-07 21:13 39.55822 -7.19583 30185 ft 497 kts 65°
2026-05-07 21:14 39.57371 -7.15509 30461 ft 497 kts 65°
2026-05-07 21:14 39.58882 -7.11542 30713 ft 498 kts 64°
2026-05-07 21:14 39.60433 -7.07468 30954 ft 498 kts 64°
2026-05-07 21:14 39.61942 -7.03492 31201 ft 499 kts 65°
2026-05-07 21:15 39.63475 -6.99437 31449 ft 499 kts 65°
2026-05-07 21:15 39.65004 -6.95396 31697 ft 499 kts 64°
2026-05-07 21:15 39.66533 -6.91349 31965 ft 500 kts 65°
2026-05-07 21:15 39.68063 -6.87294 32226 ft 500 kts 65°
2026-05-07 21:16 39.69589 -6.83241 32471 ft 500 kts 64°
2026-05-07 21:16 39.71118 -6.79174 32711 ft 501 kts 64°
2026-05-07 21:16 39.72642 -6.75111 32960 ft 501 kts 64°
2026-05-07 21:16 39.74170 -6.71028 33209 ft 502 kts 64°
2026-05-07 21:17 39.75698 -6.66952 33451 ft 502 kts 64°
2026-05-07 21:17 39.77227 -6.62869 33709 ft 503 kts 64°
2026-05-07 21:17 39.78754 -6.58779 33962 ft 503 kts 64°
2026-05-07 21:17 39.80280 -6.54683 34195 ft 503 kts 64°
2026-05-07 21:18 39.81804 -6.50582 34417 ft 504 kts 64°
2026-05-07 21:18 39.83321 -6.46486 34627 ft 504 kts 64°
2026-05-07 21:18 39.84846 -6.42372 34797 ft 505 kts 64°
2026-05-07 21:18 39.86286 -6.38253 34985 ft 506 kts 69°
2026-05-07 21:19 39.87518 -6.33962 35179 ft 506 kts 70°
2026-05-07 21:19 39.88747 -6.29654 35375 ft 507 kts 70°
2026-05-07 21:19 39.89971 -6.25355 35564 ft 507 kts 70°
2026-05-07 21:19 39.91198 -6.21048 35759 ft 507 kts 70°
2026-05-07 21:20 39.92423 -6.16753 35877 ft 509 kts 70°
2026-05-07 21:20 39.93657 -6.12424 35902 ft 510 kts 70°
2026-05-07 21:20 39.96116 -6.03763 35902 ft 511 kts 70°
2026-05-07 21:21 39.98577 -5.95059 35905 ft 512 kts 70°
2026-05-07 21:21 40.01025 -5.86341 35909 ft 512 kts 70°
2026-05-07 21:22 40.03470 -5.77628 35916 ft 511 kts 70°
2026-05-07 21:22 40.05891 -5.68971 35914 ft 511 kts 69°
2026-05-07 21:23 40.08331 -5.60234 35911 ft 512 kts 69°
2026-05-07 21:23 40.10763 -5.51480 35911 ft 513 kts 70°
2026-05-07 21:24 40.13184 -5.42705 35936 ft 513 kts 69°
2026-05-07 21:24 40.15590 -5.33990 35933 ft 513 kts 69°
2026-05-07 21:25 40.18004 -5.25212 35942 ft 513 kts 69°
2026-05-07 21:25 40.20418 -5.16411 35948 ft 513 kts 69°
2026-05-07 21:26 40.22826 -5.07629 35952 ft 513 kts 69°
2026-05-07 21:26 40.25222 -4.98821 35957 ft 513 kts 69°
2026-05-07 21:27 40.27604 -4.90012 35953 ft 513 kts 69°
2026-05-07 21:27 40.29989 -4.81196 35954 ft 514 kts 69°
2026-05-07 21:28 40.31973 -4.73801 35956 ft 514 kts 69°
2026-05-07 21:28 40.34329 -4.65008 35959 ft 514 kts 69°
2026-05-07 21:29 40.36704 -4.56152 35961 ft 515 kts 69°
2026-05-07 21:29 40.39070 -4.47300 35996 ft 514 kts 68°
2026-05-07 21:30 40.41424 -4.38442 35992 ft 514 kts 68°
2026-05-07 21:30 40.43761 -4.29588 35988 ft 513 kts 68°
2026-05-07 21:31 40.46090 -4.20736 35986 ft 513 kts 68°
2026-05-07 21:31 40.48421 -4.11884 35983 ft 512 kts 68°
2026-05-07 21:32 40.50739 -4.03041 35990 ft 512 kts 69°
2026-05-07 21:32 40.53047 -3.94188 35987 ft 512 kts 69°
2026-05-07 21:33 40.55355 -3.85332 35983 ft 512 kts 69°
2026-05-07 21:33 40.57650 -3.76471 35986 ft 512 kts 68°
2026-05-07 21:34 40.59933 -3.67598 36010 ft 511 kts 68°
2026-05-07 21:34 40.62216 -3.58733 36009 ft 511 kts 68°
2026-05-07 21:35 40.64495 -3.49861 36005 ft 511 kts 68°
2026-05-07 21:35 40.66745 -3.41035 36010 ft 511 kts 68°
2026-05-07 21:36 40.68998 -3.32146 36006 ft 511 kts 68°
2026-05-07 21:36 40.71249 -3.23254 36001 ft 511 kts 68°
2026-05-07 21:37 40.73495 -3.14364 35996 ft 511 kts 68°
2026-05-07 21:37 40.75737 -3.05455 35998 ft 511 kts 68°
2026-05-07 21:38 40.77974 -2.96540 35995 ft 512 kts 68°
2026-05-07 21:38 40.80204 -2.87625 35994 ft 512 kts 68°
2026-05-07 21:39 40.82425 -2.78690 35994 ft 512 kts 68°
2026-05-07 21:39 40.84638 -2.69752 35995 ft 512 kts 68°
2026-05-07 21:40 40.86846 -2.60798 36005 ft 512 kts 68°
2026-05-07 21:40 40.89045 -2.51845 36034 ft 512 kts 68°
2026-05-07 21:41 40.91222 -2.42954 36027 ft 511 kts 68°
2026-05-07 21:41 40.93405 -2.34022 36021 ft 510 kts 68°
2026-05-07 21:42 40.95576 -2.25081 36034 ft 510 kts 68°
2026-05-07 21:42 40.97738 -2.16152 36026 ft 509 kts 68°
2026-05-07 21:43 40.99889 -2.07222 36021 ft 509 kts 68°
2026-05-07 21:43 41.02033 -1.98299 36023 ft 509 kts 68°
2026-05-07 21:44 41.04177 -1.89364 36030 ft 508 kts 68°
2026-05-07 21:44 41.06300 -1.80443 36032 ft 507 kts 68°
2026-05-07 21:45 41.08412 -1.71521 36026 ft 507 kts 68°
2026-05-07 21:45 41.10523 -1.62616 36025 ft 506 kts 68°
2026-05-07 21:46 41.12630 -1.53705 36041 ft 506 kts 68°
2026-05-07 21:46 41.14714 -1.44811 36045 ft 504 kts 69°
2026-05-07 21:47 41.16786 -1.35927 36028 ft 503 kts 69°
2026-05-07 21:47 41.18853 -1.27057 36026 ft 503 kts 69°
2026-05-07 21:48 41.20914 -1.18181 36024 ft 503 kts 69°
2026-05-07 21:48 41.22971 -1.09300 36036 ft 503 kts 69°
2026-05-07 21:49 41.25021 -1.00424 36025 ft 502 kts 69°
2026-05-07 21:49 41.27056 -0.91544 36016 ft 502 kts 69°
2026-05-07 21:50 41.29070 -0.82720 36010 ft 502 kts 69°
2026-05-07 21:50 41.31088 -0.73834 36015 ft 501 kts 70°
2026-05-07 21:51 41.33091 -0.64965 36013 ft 500 kts 70°
2026-05-07 21:51 41.34953 -0.56057 36033 ft 500 kts 78°
2026-05-07 21:52 41.35338 -0.46839 36018 ft 500 kts 90°
2026-05-07 21:52 41.35264 -0.37584 36009 ft 499 kts 90°
2026-05-07 21:53 41.35198 -0.28344 36009 ft 499 kts 89°
2026-05-07 21:53 41.35123 -0.19121 36004 ft 499 kts 90°
2026-05-07 21:54 41.35036 -0.09896 36001 ft 498 kts 90°
2026-05-07 21:54 41.34932 -0.00671 36006 ft 499 kts 90°
2026-05-07 21:55 41.34831 0.08546 36011 ft 498 kts 90°
2026-05-07 21:55 41.34725 0.17767 35978 ft 498 kts 90°
2026-05-07 21:56 41.34605 0.26988 35977 ft 499 kts 90°
2026-05-07 21:56 41.34480 0.36227 35993 ft 500 kts 90°
2026-05-07 21:57 41.34352 0.45417 36009 ft 499 kts 91°
2026-05-07 21:57 41.34205 0.54656 36019 ft 499 kts 91°
2026-05-07 21:58 41.34058 0.63891 36028 ft 499 kts 91°
2026-05-07 21:58 41.33906 0.73129 36028 ft 499 kts 91°
2026-05-07 21:59 41.33748 0.82354 36040 ft 499 kts 91°
2026-05-07 21:59 41.33578 0.91568 36040 ft 498 kts 91°
2026-05-07 22:00 41.33402 1.00789 36038 ft 498 kts 92°
2026-05-07 22:00 41.33216 1.09987 36036 ft 497 kts 92°
2026-05-07 22:01 41.33025 1.19179 36040 ft 497 kts 92°
2026-05-07 22:01 41.32826 1.28357 36045 ft 496 kts 92°
2026-05-07 22:02 41.32623 1.37514 36044 ft 495 kts 92°
2026-05-07 22:02 41.32414 1.46609 36042 ft 495 kts 93°
2026-05-07 22:03 41.32197 1.55755 36037 ft 494 kts 93°
2026-05-07 22:03 41.31966 1.64863 36055 ft 492 kts 94°
2026-05-07 22:04 41.31731 1.73944 36059 ft 490 kts 94°
2026-05-07 22:04 41.31497 1.83002 36057 ft 490 kts 94°
2026-05-07 22:05 41.31250 1.92044 36045 ft 489 kts 94°
2026-05-07 22:05 41.30997 2.01077 36049 ft 488 kts 94°
2026-05-07 22:06 41.30684 2.10093 36047 ft 486 kts 99°
2026-05-07 22:06 41.29380 2.18865 36045 ft 483 kts 105°
2026-05-07 22:07 41.27935 2.27585 36042 ft 483 kts 105°
2026-05-07 22:07 41.26501 2.36302 36035 ft 482 kts 105°
2026-05-07 22:08 41.25057 2.44996 36039 ft 482 kts 105°
2026-05-07 22:08 41.23604 2.53677 36035 ft 481 kts 105°
2026-05-07 22:09 41.22143 2.62358 36030 ft 481 kts 105°
2026-05-07 22:09 41.20678 2.71020 36026 ft 480 kts 106°
2026-05-07 22:10 41.19215 2.79657 36036 ft 479 kts 106°
2026-05-07 22:10 41.17749 2.88276 36038 ft 478 kts 106°
2026-05-07 22:11 41.16284 2.96831 36035 ft 478 kts 106°
2026-05-07 22:11 41.14800 3.05436 36028 ft 477 kts 106°
2026-05-07 22:12 41.13571 3.12562 36034 ft 476 kts 106°
2026-05-07 22:12 41.12084 3.21119 36032 ft 476 kts 107°
2026-05-07 22:13 41.10585 3.29657 36030 ft 475 kts 107°
2026-05-07 22:13 41.09080 3.38191 36028 ft 475 kts 107°
2026-05-07 22:14 41.07581 3.46707 36008 ft 475 kts 106°
2026-05-07 22:14 41.06074 3.55242 36009 ft 475 kts 106°
2026-05-07 22:15 41.04562 3.63772 36010 ft 475 kts 107°
2026-05-07 22:15 41.03036 3.72300 36010 ft 476 kts 107°
2026-05-07 22:16 41.01501 3.80818 36004 ft 476 kts 107°
2026-05-07 22:16 40.99963 3.89327 36016 ft 475 kts 107°
2026-05-07 22:17 40.98439 3.97774 36023 ft 474 kts 107°
2026-05-07 22:17 40.96897 4.06268 36023 ft 474 kts 107°
2026-05-07 22:18 40.94559 4.18973 36020 ft 474 kts 107°
2026-05-07 22:19 40.92999 4.27435 36013 ft 473 kts 107°
2026-05-07 22:19 40.91438 4.35884 36017 ft 473 kts 107°
2026-05-07 22:20 40.89871 4.44321 36015 ft 472 kts 107°
2026-05-07 22:20 40.88297 4.52753 36016 ft 472 kts 107°
2026-05-07 22:21 40.86732 4.61126 36001 ft 472 kts 108°
2026-05-07 22:21 40.85414 4.69682 36009 ft 475 kts 100°
2026-05-07 22:22 40.84624 4.78353 36011 ft 475 kts 100°
2026-05-07 22:22 40.83832 4.86966 36014 ft 475 kts 100°
2026-05-07 22:23 40.83017 4.95629 36006 ft 475 kts 101°
2026-05-07 22:23 40.82197 5.04288 36002 ft 476 kts 101°
2026-05-07 22:24 40.81377 5.12957 36006 ft 476 kts 101°
2026-05-07 22:24 40.80545 5.21629 36004 ft 476 kts 101°
2026-05-07 22:25 40.79706 5.30300 36003 ft 476 kts 101°
2026-05-07 22:25 40.78867 5.38965 35986 ft 476 kts 102°
2026-05-07 22:26 40.78011 5.47626 35990 ft 476 kts 102°
2026-05-07 22:26 40.77151 5.56221 35987 ft 476 kts 102°
2026-05-07 22:27 40.76297 5.64869 35991 ft 476 kts 102°
2026-05-07 22:27 40.75429 5.73531 35977 ft 476 kts 103°
2026-05-07 22:28 40.74546 5.82180 35989 ft 476 kts 103°
2026-05-07 22:28 40.73659 5.90845 35994 ft 476 kts 103°
2026-05-07 22:29 40.72775 5.99501 35992 ft 477 kts 103°
2026-05-07 22:29 40.71875 6.08161 35994 ft 477 kts 103°
2026-05-07 22:30 40.70966 6.16825 35975 ft 477 kts 103°
2026-05-07 22:30 40.70052 6.25493 35982 ft 478 kts 103°
2026-05-07 22:31 40.69134 6.34178 35990 ft 478 kts 103°
2026-05-07 22:31 40.68214 6.42859 35994 ft 478 kts 103°
2026-05-07 22:32 40.67277 6.51543 35971 ft 479 kts 104°
2026-05-07 22:32 40.66331 6.60231 35972 ft 480 kts 104°
2026-05-07 22:33 40.65377 6.68884 35977 ft 481 kts 105°
2026-05-07 22:33 40.64412 6.77602 35977 ft 481 kts 105°
2026-05-07 22:34 40.63455 6.86325 35952 ft 482 kts 105°
2026-05-07 22:34 40.62481 6.95076 35961 ft 483 kts 105°
2026-05-07 22:35 40.61491 7.03830 35960 ft 484 kts 105°
2026-05-07 22:35 40.60496 7.12596 35965 ft 484 kts 105°
2026-05-07 22:36 40.59494 7.21370 35971 ft 485 kts 105°
2026-05-07 22:36 40.58485 7.30140 35965 ft 485 kts 105°
2026-05-07 22:37 40.57478 7.38910 35970 ft 485 kts 105°
2026-05-07 22:37 40.56617 7.47726 35975 ft 491 kts 97°
2026-05-07 22:38 40.57137 7.56773 35974 ft 498 kts 89°
2026-05-07 22:38 40.57925 7.65816 35984 ft 497 kts 88°
2026-05-07 22:39 40.58694 7.74836 35993 ft 495 kts 88°
2026-05-07 22:39 40.59451 7.83812 35994 ft 494 kts 88°
2026-05-07 22:40 40.60203 7.92798 35984 ft 493 kts 88°
2026-05-07 22:40 40.60949 8.01757 35957 ft 493 kts 88°
2026-05-07 22:41 40.61694 8.10734 35950 ft 494 kts 88°
2026-05-07 22:41 40.62198 8.19710 35965 ft 487 kts 98°
2026-05-07 22:42 40.60993 8.28324 35945 ft 472 kts 116°
2026-05-07 22:42 40.58252 8.36063 35914 ft 465 kts 124°
2026-05-07 22:43 40.55298 8.43582 35927 ft 466 kts 124°
2026-05-07 22:43 40.52320 8.51156 35945 ft 467 kts 124°
2026-05-07 22:44 40.49378 8.58765 35949 ft 467 kts 121°
2026-05-07 22:44 40.46378 8.66323 35961 ft 467 kts 124°
2026-05-07 22:45 40.43344 8.73867 35948 ft 467 kts 124°
2026-05-07 22:45 40.40324 8.81442 35952 ft 469 kts 124°
2026-05-07 22:46 40.37313 8.89028 35951 ft 470 kts 124°
2026-05-07 22:46 40.34288 8.96621 35961 ft 470 kts 124°
2026-05-07 22:47 40.31258 9.04200 35964 ft 470 kts 124°
2026-05-07 22:47 40.28217 9.11781 35947 ft 470 kts 124°
2026-05-07 22:48 40.25186 9.19316 35956 ft 471 kts 124°
2026-05-07 22:48 40.22126 9.26901 35960 ft 472 kts 124°
2026-05-07 22:49 40.19033 9.34546 35968 ft 472 kts 124°
2026-05-07 22:49 40.15977 9.42086 35972 ft 473 kts 124°
2026-05-07 22:50 40.12897 9.49675 35965 ft 473 kts 124°
2026-05-07 22:50 40.09807 9.57271 35976 ft 474 kts 124°
2026-05-07 22:51 40.06707 9.64864 35969 ft 474 kts 124°
2026-05-07 22:51 40.03602 9.72459 35971 ft 474 kts 124°
2026-05-07 22:52 40.00486 9.80041 35973 ft 474 kts 124°
2026-05-07 22:52 39.97369 9.87620 35948 ft 474 kts 124°
2026-05-07 22:53 39.94248 9.95193 35955 ft 474 kts 124°
2026-05-07 22:53 39.91116 10.02764 35962 ft 474 kts 124°
2026-05-07 22:54 39.87980 10.10322 35963 ft 474 kts 124°
2026-05-07 22:54 39.84844 10.17874 35964 ft 474 kts 124°
2026-05-07 22:55 39.81704 10.25409 35949 ft 473 kts 124°
2026-05-07 22:55 39.78557 10.32935 35935 ft 473 kts 124°
2026-05-07 22:56 39.75411 10.40455 35943 ft 474 kts 124°
2026-05-07 22:56 39.72262 10.47979 35941 ft 474 kts 124°
2026-05-07 22:57 39.69636 10.54225 35943 ft 474 kts 124°
2026-05-07 22:57 39.65935 10.62994 35930 ft 474 kts 124°
2026-05-07 22:58 39.63294 10.69232 35941 ft 474 kts 124°
2026-05-07 22:58 39.60122 10.76722 35944 ft 474 kts 124°
2026-05-07 22:59 39.56953 10.84212 35949 ft 474 kts 124°
2026-05-07 22:59 39.53770 10.91706 35948 ft 474 kts 124°
2026-05-07 23:00 39.50577 10.99185 35927 ft 474 kts 124°
2026-05-07 23:00 39.47382 11.06663 35937 ft 475 kts 125°
2026-05-07 23:01 39.44172 11.14157 35938 ft 476 kts 125°
2026-05-07 23:01 39.40971 11.21597 35944 ft 477 kts 125°
2026-05-07 23:02 39.37740 11.29093 35951 ft 477 kts 125°
2026-05-07 23:02 39.34513 11.36566 35958 ft 476 kts 125°
2026-05-07 23:03 39.31284 11.44025 35974 ft 474 kts 125°
2026-05-07 23:03 39.28060 11.51449 35975 ft 474 kts 126°
2026-05-07 23:04 39.24833 11.58854 35954 ft 473 kts 125°
2026-05-07 23:04 39.21611 11.66251 35928 ft 473 kts 126°
2026-05-07 23:05 39.18378 11.73665 35793 ft 475 kts 126°
2026-05-07 23:05 39.16753 11.77380 34987 ft 479 kts 126°
2026-05-07 23:05 39.15109 11.81126 34076 ft 481 kts 126°
2026-05-07 23:05 39.13456 11.84884 32976 ft 484 kts 125°
2026-05-07 23:06 39.11796 11.88659 31935 ft 484 kts 124°
2026-05-07 23:06 39.10139 11.92424 30889 ft 483 kts 124°
2026-05-07 23:06 39.08488 11.96171 29939 ft 478 kts 123°
2026-05-07 23:06 39.06852 11.99881 28509 ft 478 kts 123°
2026-05-07 23:07 39.05224 12.03575 27814 ft 470 kts 123°
2026-05-07 23:07 39.03648 12.07161 27073 ft 464 kts 123°
2026-05-07 23:07 39.02063 12.10748 26341 ft 458 kts 123°
2026-05-07 23:07 39.00502 12.14281 25643 ft 451 kts 123°
2026-05-07 23:08 38.98953 12.17775 24950 ft 448 kts 123°
2026-05-07 23:08 38.97411 12.21242 24254 ft 446 kts 123°
2026-05-07 23:08 38.95874 12.24692 23569 ft 444 kts 123°
2026-05-07 23:08 38.94344 12.28128 22808 ft 442 kts 123°
2026-05-07 23:09 38.92830 12.31529 22197 ft 436 kts 123°
2026-05-07 23:09 38.91332 12.34898 21571 ft 432 kts 123°
2026-05-07 23:09 38.89849 12.38225 21003 ft 427 kts 123°
2026-05-07 23:09 38.88375 12.41519 20440 ft 423 kts 123°
2026-05-07 23:10 38.86895 12.44755 19910 ft 417 kts 126°
2026-05-07 23:10 38.85228 12.47719 19281 ft 415 kts 129°
2026-05-07 23:10 38.83508 12.50694 18639 ft 414 kts 129°
2026-05-07 23:10 38.81796 12.53657 17969 ft 414 kts 129°
2026-05-07 23:11 38.80090 12.56613 17301 ft 411 kts 129°
2026-05-07 23:11 38.78398 12.59553 16672 ft 409 kts 129°
2026-05-07 23:11 38.76715 12.62477 16044 ft 406 kts 129°
2026-05-07 23:11 38.75042 12.65381 15419 ft 404 kts 129°
2026-05-07 23:12 38.73379 12.68273 14799 ft 403 kts 128°
2026-05-07 23:12 38.71720 12.71160 14188 ft 401 kts 128°
2026-05-07 23:12 38.70071 12.74020 13573 ft 398 kts 128°
2026-05-07 23:12 38.68432 12.76859 12920 ft 395 kts 128°
2026-05-07 23:13 38.66809 12.79661 12352 ft 389 kts 129°
2026-05-07 23:13 38.65201 12.82430 11700 ft 386 kts 129°
2026-05-07 23:13 38.63607 12.85172 11101 ft 381 kts 129°
2026-05-07 23:13 38.62035 12.87879 10597 ft 375 kts 129°
2026-05-07 23:14 38.60519 12.90494 10466 ft 358 kts 129°
2026-05-07 23:14 38.59066 12.92993 10356 ft 342 kts 129°
2026-05-07 23:14 38.57677 12.95378 10231 ft 328 kts 129°
2026-05-07 23:14 38.56337 12.97675 10112 ft 315 kts 130°
2026-05-07 23:15 38.55048 12.99880 9956 ft 305 kts 130°
2026-05-07 23:15 38.53865 13.02098 9759 ft 299 kts 121°
2026-05-07 23:15 38.53002 13.04468 9618 ft 289 kts 117°
2026-05-07 23:15 38.52197 13.06788 9272 ft 283 kts 117°
2026-05-07 23:16 38.51423 13.09091 8767 ft 281 kts 111°
2026-05-07 23:16 38.51222 13.11549 8207 ft 281 kts 81°
2026-05-07 23:16 38.51961 13.13810 7783 ft 274 kts 51°
2026-05-07 23:16 38.53407 13.15366 7675 ft 274 kts 25°
2026-05-07 23:17 38.55136 13.16384 7526 ft 274 kts 21°
2026-05-07 23:17 38.56892 13.17372 7378 ft 275 kts 21°
2026-05-07 23:17 38.58640 13.18350 7233 ft 274 kts 21°
2026-05-07 23:17 38.60384 13.19330 7086 ft 273 kts 22°
2026-05-07 23:18 38.62111 13.20309 6941 ft 268 kts 24°
2026-05-07 23:18 38.63531 13.21746 6817 ft 257 kts 56°
2026-05-07 23:18 38.64124 13.23804 6682 ft 244 kts 90°
2026-05-07 23:18 38.63823 13.25883 6560 ft 237 kts 117°
2026-05-07 23:19 38.63146 13.27801 6424 ft 237 kts 118°
2026-05-07 23:19 38.62470 13.29720 6296 ft 237 kts 118°
2026-05-07 23:19 38.61634 13.31467 6157 ft 229 kts 142°
2026-05-07 23:19 38.60286 13.32420 6034 ft 220 kts 173°
2026-05-07 23:20 38.58800 13.32359 5926 ft 214 kts 201°
2026-05-07 23:20 38.57443 13.31619 5814 ft 212 kts 207°
2026-05-07 23:20 38.56102 13.30853 5701 ft 211 kts 207°
2026-05-07 23:20 38.54759 13.30087 5599 ft 211 kts 206°
2026-05-07 23:21 38.53420 13.29324 5488 ft 211 kts 207°
2026-05-07 23:21 38.52078 13.28566 5374 ft 211 kts 206°
2026-05-07 23:21 38.50735 13.27816 5324 ft 211 kts 206°
2026-05-07 23:21 38.49390 13.27067 5257 ft 210 kts 206°
2026-05-07 23:22 38.48048 13.26318 5171 ft 211 kts 206°
2026-05-07 23:22 38.46707 13.25570 5069 ft 210 kts 206°
2026-05-07 23:22 38.45364 13.24820 4953 ft 211 kts 207°
2026-05-07 23:22 38.44029 13.24059 4749 ft 209 kts 207°
2026-05-07 23:23 38.42704 13.23298 4551 ft 209 kts 207°
2026-05-07 23:23 38.41381 13.22537 4340 ft 208 kts 207°
2026-05-07 23:23 38.40061 13.21779 4148 ft 207 kts 207°
2026-05-07 23:23 38.38743 13.21022 3952 ft 208 kts 206°
2026-05-07 23:24 38.37424 13.20268 3755 ft 207 kts 206°
2026-05-07 23:24 38.36128 13.19536 3551 ft 201 kts 205°
2026-05-07 23:24 38.34866 13.18824 3378 ft 196 kts 205°
2026-05-07 23:24 38.33635 13.18132 3195 ft 191 kts 205°
2026-05-07 23:25 38.32434 13.17454 3019 ft 188 kts 205°
2026-05-07 23:25 38.31258 13.16790 2785 ft 188 kts 205°
2026-05-07 23:25 38.30056 13.16113 2558 ft 184 kts 205°
2026-05-07 23:25 38.28898 13.15463 2296 ft 181 kts 205°
2026-05-07 23:26 38.27770 13.14828 2045 ft 173 kts 204°
2026-05-07 23:26 38.26703 13.14227 1826 ft 161 kts 205°
2026-05-07 23:26 38.25716 13.13673 1614 ft 148 kts 204°
2026-05-07 23:26 38.24807 13.13166 1415 ft 139 kts 206°
2026-05-07 23:27 38.23102 13.12209 1060 ft 132 kts 206°
2026-05-07 23:27 38.22278 13.11747 789 ft 130 kts 205°
2026-05-07 23:27 38.21462 13.11263 666 ft 129 kts 202°
2026-05-07 23:28 38.20625 13.10828 505 ft 129 kts 205°
2026-05-07 23:28 38.19819 13.10349 410 ft 129 kts 204°
2026-05-07 23:28 38.19002 13.09902 220 ft 126 kts 203°
2026-05-07 23:28 38.18221 13.09463 64 ft 115 kts 202°
2026-05-07 23:29 38.17708 13.09175 53 ft 26 kts 204°
2026-05-07 23:29 38.17557 13.09091 52 ft 23 kts 204°
2026-05-07 23:29 38.17409 13.09009 50 ft 23 kts 203°
2026-05-07 23:29 38.17262 13.08927 50 ft 23 kts 205°
2026-05-07 23:30 38.17117 13.08837 51 ft 23 kts 209°
2026-05-07 23:30 38.17050 13.08743 53 ft 10 kts 272°
2026-05-07 23:30 38.17094 13.08685 53 ft 9 kts 323°
2026-05-07 23:30 38.17143 13.08640 53 ft 8 kts 325°
2026-05-07 23:31 38.17192 13.08607 53 ft 8 kts 341°
2026-05-07 23:31 38.17232 13.08618 53 ft 5 kts 27°
2026-05-07 23:31 38.17263 13.08632 53 ft 4 kts 18°
2026-05-07 23:31 38.17289 13.08643 50 ft 3 kts 18°
2026-05-07 23:32 38.17310 13.08651 53 ft 4 kts 18°
2026-05-07 23:32 38.17397 13.08688 53 ft 17 kts 18°
2026-05-07 23:32 38.17506 13.08735 50 ft 16 kts 23°
2026-05-07 23:32 38.17594 13.08812 53 ft 15 kts 37°
2026-05-07 23:33 38.17683 13.08899 53 ft 19 kts 38°
2026-05-07 23:33 38.17761 13.09017 53 ft 17 kts 66°
2026-05-07 23:33 38.17814 13.09180 53 ft 25 kts 68°
2026-05-07 23:33 38.17883 13.09389 53 ft 27 kts 62°
2026-05-07 23:34 38.17960 13.09613 53 ft 29 kts 68°
2026-05-07 23:34 38.18034 13.09828 53 ft 17 kts 66°
2026-05-07 23:34 38.18118 13.09868 53 ft 12 kts 29°
2026-05-07 23:34 38.18157 13.09958 52 ft 11 kts 67°
2026-05-07 23:35 38.18192 13.10067 49 ft 16 kts 68°
2026-05-07 23:35 38.18234 13.10195 53 ft 15 kts 66°
2026-05-07 23:35 38.18280 13.10333 51 ft 22 kts 67°
2026-05-07 23:35 38.18322 13.10451 53 ft 11 kts 65°
2026-05-07 23:36 38.18383 13.10499 53 ft 10 kts 20°
2026-05-07 23:36 38.18442 13.10539 51 ft 9 kts 49°
2026-05-07 23:36 38.18469 13.10608 50 ft 8 kts 68°
2026-05-07 23:36 38.18492 13.10653 52 ft 4 kts 23°
2026-05-07 23:37 38.18512 13.10638 53 ft 3 kts 312°
2026-05-07 23:37 38.18526 13.10624 53 ft 2 kts 331°
2026-05-07 23:37 38.18537 13.10617 53 ft 1 kts 328°
2026-05-07 23:37 38.18543 13.10613 53 ft 1 kts 333°
2026-05-07 23:38 38.18545 13.10612 53 ft 0 kts 338°
2026-05-07 23:38 38.18549 13.10610 53 ft 1 kts 339°
2026-05-07 23:38 38.18554 13.10608 53 ft 1 kts 339°
2026-05-07 23:38 38.18555 13.10607 53 ft 0 kts 339°